Location: Fontaraby
(47.2376°N, 3.2596°E)
Time: 02:02:06
(UTC+00:00)

Daily predictions for brighter satellites

Satellite Brightness Start Highest point End
(mag) Time Altitude Azimuth Time Altitude Azimuth Time Altitude Azimuth
Cosmos 2219 Rocket 4.2 03:41:53 20° NNE 03:41:53 20° NNE 03:43:30 10° NNE
Cosmos 2237 Rocket 3.5 03:43:06 36° E 03:43:06 36° E 03:47:22 10° NE
BREEZE-M DEB (TANK) 4.1 03:55:50 83° WNW 03:56:13 90° SSW 04:00:57 10° ESE
Cosmos 2333 Rocket 4.0 04:04:35 22° N 04:04:35 22° N 04:06:40 10° NNE
Lacrosse 4 Rocket 3.7 04:04:26 24° E 04:04:26 24° E 04:07:14 10° NE
Cosmos 2360 Rocket 4.4 04:15:24 14° N 04:15:24 14° N 04:16:23 10° N
Gbstr 26 Del rocket 4.5 04:13:50 60° S 04:14:54 67° SE 04:22:56 10° ENE
Cosmos 1464 Rocket 4.1 04:13:47 52° SSE 04:15:15 71° E 04:21:25 10° NNE
Cosmos 841 Rocket 4.2 04:16:54 49° NE 04:16:54 49° NE 04:20:49 10° NNE
Cosmos 1980 4.0 04:17:06 65° ENE 04:17:06 65° ENE 04:22:01 10° NNE
FALCON 9 R/B 4.4 04:24:54 10° S 04:24:54 10° S 04:24:55 10° S
COSMOS 2428 4.0 04:25:09 28° N 04:25:09 28° N 04:28:04 10° NNE
Cosmos 1072 Rocket 4.4 04:22:09 70° S 04:22:57 86° E 04:29:20 10° N
Atlas Centaur 2 4.3 04:26:51 20° S 04:27:40 20° S 04:33:03 10° SE
ATLAS CENTAUR R/B 3.1 04:31:44 27° ENE 04:31:44 27° ENE 04:33:47 10° NE
METEOR-M 4.1 04:28:09 10° NNE 04:33:33 79° ESE 04:34:33 59° S
Cosmos 2084 Rocket 4.1 04:37:18 56° E 04:37:18 56° E 04:41:03 10° SE
Cosmos 372 Rocket 4.0 04:40:33 67° S 04:40:33 67° S 04:45:05 10° SSE
ALOS 4.0 04:36:15 10° N 04:37:53 22° N 04:37:53 22° N
USA 215 3.6 04:36:09 10° NE 04:42:19 46° NNW 04:43:15 44° NW
Cosmos 1602 Rocket 4.2 04:40:25 31° NNE 04:42:19 55° ENE 04:46:43 10° SSE
ADEOS 3.6 04:38:41 10° NNE 04:43:57 80° ESE 04:47:41 20° S
USA 307 3.5 04:44:43 54° ESE 04:44:43 54° ESE 04:48:33 10° ENE
NOSS 0 Rocket 3.8 04:45:40 62° WNW 04:45:46 62° WNW 04:51:55 10° NNE
Nadezhda 4 Rocket 3.8 04:42:22 10° N 04:48:32 85° W 04:54:39 10° S
USA 305 3.2 04:50:49 63° SE 04:50:49 63° SE 04:54:52 10° ENE
USA 308 3.1 04:53:18 64° SSE 04:53:22 64° SE 04:57:37 10° ENE
Cosmos 1400 Rocket 3.1 04:53:20 51° SSE 04:54:12 70° E 04:58:20 10° NNE
SL-4 R/B 2.3 04:55:30 60° E 04:55:30 60° E 04:58:55 10° ENE
Cosmos 1943 Rocket 3.0 04:51:10 16° NNW 04:55:29 48° NE 05:00:58 10° SE
Cosmos 2034 Rocket 3.9 04:50:27 10° S 04:56:50 82° W 05:03:14 10° N
Meteor 1-16 Rocket 4.3 04:51:52 10° S 04:57:47 89° E 05:03:45 10° NNE
Cosmos 1570 Rocket 3.9 04:57:36 64° WSW 04:58:09 69° WNW 05:03:26 10° NNE
Cosmos 540 Rocket 3.8 05:01:39 47° NW 05:01:39 47° NW 05:05:59 10° NNE
SJ-12 3.9 04:58:01 10° NNE 05:02:12 86° ESE 05:04:12 30° S
USA 306 2.8 05:02:36 71° S 05:02:55 76° SE 05:07:10 10° ENE
Cosmos 2298 Rocket 4.0 05:00:29 29° NNW 05:03:19 89° ENE 05:08:39 10° SSE
NOSS 3-2 (A) 3.6 05:00:28 19° SSW 05:04:40 69° SE 05:11:08 10° NE
Cosmos 1814 Rocket 3.8 05:03:50 54° WSW 05:04:50 67° WNW 05:09:58 10° NNE
Cosmos 2369 Rocket 3.5 05:00:37 10° NNW 05:05:47 36° NE 05:10:54 10° ESE
Cosmos 1125 Rocket 3.8 05:01:52 16° NNW 05:06:04 67° ENE 05:11:21 10° SSE
Envisat 4.4 05:01:33 10° NNE 05:06:19 38° E 05:11:01 10° SSE
CZ-4B R/B 2.9 05:07:37 10° NNE 05:11:17 68° ESE 05:15:02 10° S
COSMO-SKYMED 1 2.4 05:07:27 10° S 05:11:46 66° WSW 05:12:33 54° NW
CZ-4B R/B 4.1 05:08:42 10° N 05:13:07 59° WNW 05:13:34 56° W
PSLV R/B 4.1 05:09:45 10° SSE 05:13:51 71° ENE 05:17:58 10° N
Cosmos 2278 Rocket 3.9 05:18:36 16° SW 05:18:36 16° SW 05:20:08 10° SSW
USA 267 4.4 05:11:57 10° S 05:16:24 22° SW 05:16:24 22° SW
Cosmos 2228 4.2 05:13:22 10° SSE 05:17:23 43° E 05:21:24 10° NNE
SL-16 R/B 2.3 05:12:16 10° SSW 05:17:55 78° ESE 05:23:37 10° NNE
NOSS 3-2 (C) 4.1 05:12:56 10° SSW 05:18:23 53° ESE 05:24:36 10° NE
CZ-2C R/B 3.6 05:19:17 13° SSW 05:19:55 14° SSW 05:22:04 10° SSE
Cosmos 972 Rocket 4.3 05:16:08 10° SSW 05:22:25 88° ESE 05:28:02 10° NNE
Cosmos 2219 Rocket 3.8 05:23:37 17° NNW 05:23:37 17° NNW 05:26:33 10° N
Cosmos 2026 Rocket 4.0 05:17:52 10° N 05:24:17 87° E 05:30:40 10° S
ERS-2 2.0 05:20:51 10° S 05:24:27 66° WSW 05:25:10 51° NW
ATLAS 5 CENTAUR R/B 3.5 05:25:47 19° SSW 05:25:47 19° SSW 05:28:26 10° S
CENTAUR R/B 2.9 05:19:47 10° SSW 05:25:35 64° ESE 05:32:30 10° NE
Cosmos 2237 Rocket 2.7 05:24:59 35° W 05:26:10 39° NW 05:31:31 10° NNE
Cosmos 2208 Rocket 4.2 05:23:25 27° SW 05:26:11 51° WNW 05:31:28 10° NNE
H-2A R/B 2.6 05:24:32 10° NNE 05:28:16 83° ESE 05:32:01 10° SSW
FALCON 9 DEB 4.1 05:30:00 23° SSW 05:31:27 39° SE 05:34:25 10° ENE
Meteor PRIRODA 3.4 05:29:19 10° N 05:32:55 70° WNW 05:36:33 10° SSW
Cosmos 1606 Rocket 4.1 05:29:34 10° S 05:33:47 58° E 05:38:04 10° NNE
Cosmos 1626 Rocket 4.4 05:37:41 30° WSW 05:37:41 30° WSW 05:41:02 10° SSW
FALCON 9 DEB 3.5 05:38:25 25° SSW 05:39:54 52° SE 05:42:57 10° ENE
Lacrosse 4 Rocket 1.9 05:40:48 31° W 05:42:08 40° NW 05:46:18 10° NNE
Meteor 1-11 4.2 05:39:33 10° NNW 05:45:04 62° W 05:50:34 10° S
Cosmos 1300 2.5 05:41:54 10° SSW 05:45:42 79° W 05:49:32 10° N
Cosmos 2333 Rocket 4.0 05:46:36 13° NW 05:46:50 13° NNW 05:49:28 10° N
SAR-Lupe-4 3.8 05:44:38 10° S 05:48:06 45° W 05:50:19 20° NW
Cosmos 1315 Rocket 2.6 05:46:21 10° SSW 05:50:15 83° WNW 05:54:12 10° N
deb Chang Zheng 4 3.8 05:46:37 10° N 05:50:38 41° WNW 05:54:36 10° SW
Meteor 1-31 Rocket 4.4 05:50:55 10° NNW 05:52:39 18° NW 05:52:39 18° NW
Cosmos 2297 4.1 05:50:12 15° NW 05:54:42 44° WSW 06:00:06 10° S
MOS 1 Rocket 3.9 05:53:07 10° SSW 05:57:29 34° W 06:01:40 10° NNW
Cosmos 1346 Rocket 3.1 05:54:23 10° NNW 05:58:07 42° W 06:01:53 10° SSW
USA 238 DEB 3.6 05:53:51 10° SW 06:00:25 70° NW 06:07:22 10° NE
USA 238 3.6 05:53:58 10° SW 06:00:32 70° NW 06:07:28 10° NE
Cosmos 836 Rocket 4.4 05:55:20 10° SSW 06:00:34 74° WNW 06:05:50 10° NNE
Cosmos 1758 Rocket 4.0 05:58:47 10° NNW 06:02:59 40° W 06:07:07 10° SSW
FALCON 9 DEB 4.3 06:01:26 20° NW 06:02:59 30° N 06:06:03 10° ENE
Cosmos 1689 Rocket 3.2 06:04:26 10° SSW 06:06:51 24° W 06:07:23 22° WNW
ATLAS CENTAUR R/B 2.3 06:07:56 19° WNW 06:09:19 24° NW 06:12:22 10° NNE
Cosmos 1441 Rocket 4.2 06:05:48 10° N 06:09:40 51° ENE 06:13:28 10° SSE
BREEZE M DEB (TANK) 2.3 06:11:50 11° SW 06:14:03 63° SSE 06:18:56 10° ENE
SL-19 R/B 4.0 06:10:55 10° NNE 06:14:39 84° ESE 06:17:54 10° SSW
MOS 1-B 4.4 06:11:48 10° NNE 06:17:38 90° ESE 06:23:25 10° SSW
Cosmos 1726 Rocket 3.5 06:13:48 10° SSW 06:18:03 61° WNW 06:22:22 10° N
YAOGAN 6 3.1 06:15:03 10° N 06:18:29 37° WNW 06:21:54 10° SW
Cosmos 1892 2.6 06:14:45 10° N 06:18:37 83° W 06:22:28 10° S
Cosmos 1184 Rocket 4.3 06:15:59 10° N 06:19:05 38° ENE 06:22:09 10° SE
Spot 2 3.8 06:15:15 10° NNE 06:19:18 76° WNW 06:23:25 10° SSW
Cosmos 2058 Rocket 3.1 06:15:39 10° S 06:20:02 87° ESE 06:24:32 10° N
Cosmos 1603 4.1 06:15:33 10° SSW 06:21:07 68° ESE 06:26:44 10° NNE
FALCON 9 DEB 2.8 06:19:09 11° WSW 06:22:09 70° NNW 06:25:14 10° ENE
GEOS 3 Rocket 4.0 06:17:02 10° SSE 06:22:13 49° WSW 06:27:29 10° NW
USA 307 3.4 06:20:52 12° W 06:24:32 44° NNW 06:28:36 10° NE
USA 215 4.1 06:18:38 10° ENE 06:24:32 38° N 06:30:27 10° WNW
CZ-4B DEB 4.2 06:23:08 10° N 06:28:39 64° WNW 06:34:07 10° SSW
In-Cosmos 22 Rocket 4.1 06:23:37 10° NNW 06:29:00 62° W 06:34:15 10° S
PSLV R/B 4.3 06:25:34 10° N 06:29:19 39° WNW 06:33:06 10° SW
Cosmos 2279 Rocket 4.1 06:24:02 10° SSW 06:30:09 57° WNW 06:36:21 10° N
Cosmos 2292 Rocket 3.2 06:27:51 10° NNW 06:30:45 42° W 06:34:04 10° SSW
USA 305 3.5 06:26:57 11° W 06:30:50 42° NNW 06:34:54 10° NE
FALCON 9 DEB 2.9 06:27:47 10° WSW 06:30:55 67° NNW 06:34:03 10° ENE
Cosmos 1408 2.5 06:28:44 10° NNW 06:32:21 79° W 06:35:58 10° S
USA 308 3.5 06:29:29 10° W 06:33:34 42° NNW 06:37:40 10° NE
Cosmos 2098 Rocket 4.3 06:29:48 10° NNW 06:34:31 28° W 06:38:25 10° SW
Okean O Rocket 1.6 06:30:17 10° NNE 06:34:40 89° ESE 06:39:00 10° SSW
SL-4 R/B 2.4 06:31:05 10° W 06:34:45 46° N 06:38:49 10° ENE
SMAP 3.0 06:32:06 10° N 06:36:44 65° WNW 06:41:21 10° SSW
Cosmos 2263 4.2 06:32:47 10° NNW 06:38:26 69° WSW 06:44:06 10° SSE
Cosmos 1943 Rocket 3.0 06:34:07 10° NW 06:39:01 31° WSW 06:43:54 10° SSW
Iridium 4 Rocket 4.2 06:34:58 10° S 06:40:46 74° E 06:46:42 10° N
H-2A R/B 2.7 06:36:29 10° N 06:40:56 57° WNW 06:45:20 10° SSW
CZ-2C R/B 2.9 06:37:00 10° S 06:42:03 47° W 06:47:15 10° NNW
USA 306 3.6 06:39:11 10° W 06:43:11 39° NNW 06:47:10 10° NE
Cosmos 1939 Rocket 3.0 06:39:42 10° NNE 06:43:38 79° ESE 06:47:29 10° S
Envisat 3.7 06:40:47 10° N 06:45:14 31° WNW 06:49:40 10° SW
Cosmos 773 Rocket 4.0 06:43:53 10° SSW 06:49:07 82° WNW 06:54:22 10° NNE
Cosmos 2369 Rocket 2.7 06:44:38 10° NW 06:49:53 42° WSW 06:55:04 10° S
Cosmos 1076 Rocket 3.8 06:46:08 10° N 06:50:25 73° E 06:54:38 10° SSE
